This is the latest recevied weather packets stored in our database for station/object IW3HBX-13. If no packets are shown the sender has not sent any weather packets the latest 10 day(s).
| Time | Temp. | Humidity | Pressure | Rain* | Wind** | Luminosity | Snow |
|---|---|---|---|---|---|---|---|
| 1777400648 | 19.44° C | 63% | 1015.5 hPa | 0 mm | - | 1 W/m² | - |
| 1777400289 | 19.44° C | 62% | 1015.4 hPa | 0 mm | - | 2 W/m² | - |
| 1777399569 | 20° C | 61% | 1015.3 hPa | 0 mm | - | 5 W/m² | - |
| 1777398847 | 20.56° C | 57% | 1015.1 hPa | 0 mm | - | 15 W/m² | - |
| 1777398487 | 21.11° C | 55% | 1015.2 hPa | 0 mm | - | 19 W/m² | - |
| 1777398129 | 21.11° C | 52% | 1015.2 hPa | 0 mm | - | 22 W/m² | - |
| 1777397770 | 21.11° C | 52% | 1015.1 hPa | 0 mm | - | 28 W/m² | - |
| 1777397050 | 21.67° C | 52% | 1015 hPa | 0 mm | - | 45 W/m² | - |
| 1777396687 | 21.67° C | 53% | 1015 hPa | 0 mm | - | 55 W/m² | - |
| 1777395247 | 22.22° C | 52% | 1014.8 hPa | 0 mm | - | 98 W/m² | - |
| 1777394887 | 22.22° C | 51% | 1014.8 hPa | 0 mm | - | 101 W/m² | - |
| 1777394529 | 22.22° C | 48% | 1014.9 hPa | 0 mm | - | 110 W/m² | - |
| 1777394168 | 22.22° C | 49% | 1014.8 hPa | 0 mm | - | 114 W/m² | - |
| 1777393807 | 22.22° C | 51% | 1014.9 hPa | 0 mm | - | 120 W/m² | - |
| 1777393449 | 22.22° C | 51% | 1014.9 hPa | 0 mm | - | 120 W/m² | - |
| 1777393087 | 22.22° C | 51% | 1014.9 hPa | 0 mm | - | 125 W/m² | - |
| 1777392728 | 22.78° C | 50% | 1014.9 hPa | 0 mm | - | 135 W/m² | - |
| 1777392368 | 22.78° C | 50% | 1014.9 hPa | 0 mm | - | 167 W/m² | - |
| 1777391649 | 22.78° C | 49% | 1015 hPa | 0 mm | - | 199 W/m² | - |
| 1777391287 | 22.78° C | 48% | 1014.9 hPa | 0 mm | - | 242 W/m² | - |
| 1777390930 | 22.78° C | 49% | 1014.9 hPa | 0 mm | - | 270 W/m² | - |
| 1777390570 | 22.78° C | 50% | 1014.9 hPa | 0 mm | - | 237 W/m² | - |
| 1777389848 | 22.78° C | 51% | 1014.9 hPa | 0 mm | - | 241 W/m² | - |
| 1777389488 | 22.78° C | 53% | 1014.8 hPa | 0 mm | - | 217 W/m² | - |
| 1777388770 | 22.78° C | 54% | 1014.9 hPa | 0 mm | - | 233 W/m² | - |
* Rain latest hour (hover to see other rain measurements)
** Current wind speed in m/s (hover to see current wind gust speed)